Regional Weather Roundup
Issued by NWS Goodland, KS

Home | Current Version | Previous Version | Graphics & Text | Print | Product List | Glossary On
Versions: 1 2 3 4 5 6 7 8 9 10 11 12 13 14 15 16 17 18 19 20 21 22 23 24 25 26 27 28 29 30 31 32 33 34 35 36 37 38 39 40 41 42 43 44 45 46 47 48 49 50
000
ASUS43 KGLD 222008
RWRGLD

GOODLAND FORECAST AREA HOURLY WEATHER ROUNDUP
NATIONAL WEATHER SERVICE GOODLAND KS
200 PM MDT FRI AUG 22 2014

...OFFICIAL OBSERVATIONS...

CITY           SKY/WX    TMP DP  RH WIND       PRES   REMARKS
GOODLAND KS    PTSUNNY   87  64  46 E20G28    30.02F
HILL CITY KS   SUNNY     93  64  38 E16G22    29.93F
IMPERIAL NEB   PTSUNNY   84  57  39 N13       30.04S
MCCOOK NEB     MOSUNNY   92  64  39 NE18G25   29.97F
AKRON CO       CLOUDY    70  58  65 N9        30.14R
BURLINGTON CO  PTSUNNY   87  58  37 E16G30    30.05F
LIMON CO       CLOUDY    78  55  44 E16       30.12F
$$

...UNOFFICIAL OBSERVATIONS...

CITY           SKY/WX    TMP DP  RH WIND       PRES   REMARKS
COLBY KS       MOSUNNY   86  68  54 E9        30.02S
LENORA KS        N/A     90  32  12 CALM        N/A
NORTON KS      SUNNY     93  57  29 NE14G22   29.94S
SHARON SPRINGS   N/A     81  69  66 E12         N/A
WAKEENEY KS      N/A     94  64  36 MISG        N/A
KIT CARSON CO    N/A     76  65  68 MISG        N/A
YUMA CO          N/A     75  58  54 N8          N/A
$$



USA.gov is the U.S. government's official web portal to all federal, state and local government web resources and services.